Regional Weather Roundup
Issued by NWS

Home | Current Version | Previous Version | Graphics & Text | Print | Product List | Glossary On
Versions: 1 2 3 4 5 6 7 8 9 10 11 12 13 14 15 16 17 18 19 20 21 22 23 24 25 26 27 28 29 30 31 32 33 34 35 36 37 38 39 40 41 42 43 44 45 46 47 48 49 50
169
ASUS44 KMEG 251810
RWRTN
TENNESSEE HOURLY STATE WEATHER ROUNDUP
NATIONAL WEATHER SERVICE MEMPHIS TN
100 PM CDT WED MAY 25 2016

TNZ002-004-019-021-049-052-054-088>092-251900-
WEST TENNESSEE

CITY           SKY/WX    TMP DP  RH WIND       PRES   REMARKS
MEMPHIS INTL   CLOUDY    82  72  71 SW7G18    30.11S
NWS MEMPHIS      N/A     83 N/A N/A MISG        N/A
JACKSON        CLOUDY    80  71  74 SW8       30.10F
DYERSBURG      CLOUDY    75  70  83 S6        30.08F
UNION CITY     CLOUDY    72  72 100 SW8       30.08S
PARIS          MOSUNNY   79  72  78 SW13      30.10F
LEXINGTON      MOSUNNY   84  66  54 S10       30.09F
$$

TNZ008-025-027-028-033-062-065-066-251900-
NORTH MIDDLE TENNESSEE

CITY           SKY/WX    TMP DP  RH WIND       PRES   REMARKS
NASHVILLE      CLOUDY    82  62  50 S9        30.15F
CLARKSVILLE    LGT RAIN  79  68  69 NW3       30.11F
SMYRNA         MOSUNNY   81  65  58 S9G17     30.16F
COOKEVILLE     MOSUNNY   75  64  69 SE5       30.20F
CROSSVILLE     CLOUDY    76  59  55 CALM      30.25F
$$

TNZ061-075-076-078-094-096-097-251900-
SOUTH MIDDLE TENNESSEE

CITY           SKY/WX    TMP DP  RH WIND       PRES   REMARKS
FAYETTEVILLE   SUNNY     84  59  42 SW12      30.18F
TULLAHOMA      MOSUNNY   81  63  54 S9        30.20F
WINCHESTER     SUNNY     84  61  45 S10       30.20F
MCMINNVILLE    SUNNY     82  64  54 S6        30.20F
COLUMBIA       MOSUNNY   84  72  65 SW14      30.13F
SHELBYVILLE    SUNNY     86  64  48 S14       30.18F
$$

TNZ017-018-042-046-047-251900-
NORTHEAST TENNESSEE

CITY           SKY/WX    TMP DP  RH WIND       PRES   REMARKS
TRI CITIES     MOSUNNY   81  56  42 SW10      30.23F
$$

TNZ012-013-036-069-073-074-251900-
CENTRAL EAST TENNESSEE

CITY           SKY/WX    TMP DP  RH WIND       PRES   REMARKS
KNOXVILLE      PTSUNNY   82  54  37 SW15      30.21F
OAK RIDGE      MOSUNNY   80  58  46 VRB6      30.23F
GATLINBURG       N/A     82  57  42 W9        30.20S
$$

TNZ083-085-099-251900-
SOUTHEAST TENNESSEE

CITY           SKY/WX    TMP DP  RH WIND       PRES   REMARKS
CHATTANOOGA    CLOUDY    82  59  45 NW5       30.21F
$$

SKY/WX REPORTED AS FAIR MEANS FEW OR NO CLOUDS BELOW
12 THOUSAND FEET.





USA.gov is the U.S. government's official web portal to all federal, state and local government web resources and services.